This is the latest recevied weather packets stored in our database for station/object KC2G. If no packets are shown the sender has not sent any weather packets the latest 10 day(s).
| Time | Temp. | Humidity | Pressure | Rain* | Wind** | Luminosity | Snow |
|---|---|---|---|---|---|---|---|
| 1777813445 | 8.33° C | 57% | 1011.7 hPa | 0 mm | 0.89 m/s, 270° | - | - |
| 1777813254 | 8.33° C | 57% | 1011.7 hPa | 0 mm | 0.89 m/s, 270° | - | - |
| 1777812354 | 7.78° C | 58% | 1011.8 hPa | 0 mm | 0.89 m/s, 251° | - | - |
| 1777811455 | 7.22° C | 59% | 1011.9 hPa | 0 mm | 0.89 m/s, 309° | - | - |
| 1777810555 | 6.11° C | 64% | 1012 hPa | 0 mm | 0.45 m/s, 302° | - | - |
| 1777809970 | 6.11° C | 66% | 1012 hPa | 0 mm | 0.45 m/s, 321° | - | - |
| 1777809793 | 6.11° C | 66% | 1012 hPa | 0 mm | 0.45 m/s, 321° | - | - |
| 1777809655 | 6.11° C | 66% | 1012 hPa | 0 mm | 0.45 m/s, 321° | - | - |
| 1777808819 | 6.11° C | 64% | 1011.9 hPa | 0 mm | 0.89 m/s, 256° | - | - |
| 1777808755 | 6.11° C | 64% | 1011.9 hPa | 0 mm | 0.89 m/s, 256° | - | - |
| 1777807855 | 6.11° C | 65% | 1011.7 hPa | 0 mm | 0.89 m/s, 329° | - | - |
| 1777807003 | 6.11° C | 65% | 1011.7 hPa | 0 mm | 0.45 m/s, 293° | - | - |
| 1777806954 | 6.11° C | 65% | 1011.7 hPa | 0 mm | 0.45 m/s, 293° | - | - |
| 1777806107 | 6.11° C | 64% | 1011.5 hPa | 0 mm | 0.45 m/s, 309° | - | - |
| 1777806055 | 6.11° C | 64% | 1011.5 hPa | 0 mm | 0.45 m/s, 309° | - | - |
| 1777805154 | 6.11° C | 64% | 1011.3 hPa | 0 mm | 0.45 m/s, 305° | - | - |
| 1777804255 | 6.11° C | 64% | 1011.1 hPa | 0 mm | 0.45 m/s, 272° | - | - |
| 1777803354 | 6.11° C | 64% | 1010.9 hPa | 0 mm | 0.45 m/s, 245° | - | - |
| 1777802456 | 6.11° C | 64% | 1010.8 hPa | 0 mm | 0.45 m/s, 293° | - | - |
| 1777801656 | 6.11° C | 62% | 1010.7 hPa | 0 mm | 0.45 m/s, 274° | - | - |
| 1777801604 | 6.11° C | 62% | 1010.7 hPa | 0 mm | 0.45 m/s, 274° | - | - |
| 1777801555 | 6.11° C | 62% | 1010.7 hPa | 0 mm | 0.45 m/s, 274° | - | - |
| 1777800655 | 6.11° C | 61% | 1010.6 hPa | 0 mm | 0.45 m/s, 261° | - | - |
| 1777799958 | 6.67° C | 60% | 1010.6 hPa | 0 mm | 0.45 m/s, 282° | - | - |
| 1777799755 | 6.67° C | 60% | 1010.6 hPa | 0 mm | 0.45 m/s, 282° | - | - |
* Rain latest hour (hover to see other rain measurements)
** Current wind speed in m/s (hover to see current wind gust speed)